{"data":{"norad_id":61555,"epoch":"2026-05-25T03:01:03.967104Z","epoch_age_seconds":64376,"freshness":"FRESH","line1":"1 61555U 24185D   26145.12574036  .00000157  00000+0  12401-3 0  9991","line2":"2 61555  88.9832  61.3331 0004960 198.6414 161.4576 13.86381942 91578","mean_motion":13.86381942,"eccentricity":0.000496,"inclination_deg":88.9832,"raan_deg":61.3331,"arg_perigee_deg":198.6414,"mean_anomaly_deg":161.4576,"bstar":0.00012401,"rev_number":9157,"period_min":103.86748098599,"perigee_km":937.70721907542,"apogee_km":944.96813795651,"semimajor_km":7319.474678516,"source":"CELESTRAK","updated_at":"2026-05-25T13:38:02.413067Z"}}